{"data":{"norad_id":45189,"intl_designator":"2020-012M","name":"STARLINK-1230","alt_names":[],"object_type":"PAYLOAD","status":"ACTIVE","operator":null,"country":"US","launch_date":"2020-02-17","launch_site_code":"AFETR","launch_vehicle":null,"mission":null,"orbit_class":"UNKNOWN","rcs_meters":null,"size_class":null,"mass_kg":null,"dimensions":null,"purposes":["comms"],"wikipedia_slug":null,"has_3d_model":false,"image_url":null,"decayed_at":null,"tle_current":{"epoch":"2026-05-25T02:45:58.813056Z","epoch_age_seconds":68127,"freshness":"FRESH","line1":"1 45189U 20012M   26145.11526404  .00038268  00000+0  11672-2 0  9998","line2":"2 45189  53.1572  44.1424 0002860 117.8726 242.2566 15.33595770343876","mean_motion":15.3359577,"eccentricity":0.000286,"inclination_deg":53.1572,"raan_deg":44.1424,"arg_perigee_deg":117.8726,"mean_anomaly_deg":242.2566,"bstar":0.0011672,"rev_number":34387,"period_min":93.896972603152,"perigee_km":463.13746154018,"apogee_km":467.05179003013,"semimajor_km":6843.2316257852,"source":"CELESTRAK","updated_at":"2026-05-25T13:38:16.382186Z"}}}